Fascination — C6FM9 — position and weather

sailwx.info

Track history (hours):
 
Tides and Currents Weather Stations Pressure Air Temp Water Temp Dewpoint Dewpoint Depression Visibility Wind Speed Wind Dir Waves Ship Positions

Fascination

Operator: Carnival Cruise Lines

Last reported at 2018-Jun-22 11:03 UTC. Time now 2018-Jun-22 18:39 UTC.
Position N 17°15' W 062°43'.

Type: Ship. MMSI: 309682000.

Date/timePositionNaut miles runAvg speedWind from/ knotsBaromVisibWave heightAir tempDewpointWater temp
2018-Jun-22 11:03N 17°15' W 062°43'210.0
2018-Jun-22 10:49N 17°13' W 062°43'411.9
2018-Jun-22 10:30N 17°09' W 062°43'16316.0
2018-Jun-22 00:20N 14°42' W 061°31'2616.5
2018-Jun-21 22:44N 14°19' W 061°18'516.8
2018-Jun-21 22:25N 14°15' W 061°15'716.4
2018-Jun-21 22:00N 14°10' W 061°10'1313.2
2018-Jun-21 20:59N 14°01' W 060°60'0 0.0
2018-Jun-21 15:22N 14°01' W 060°60'0 0.0
2018-Jun-21 14:12N 14°01' W 060°60'0 0.0
2018-Jun-21 12:45N 14°01' W 060°60'0 0.0
2018-Jun-21 12:30N 14°01' W 060°60'0 0.0
2018-Jun-21 11:59N 14°01' W 060°60'0 0.0
2018-Jun-21 11:29N 14°01' W 060°60'1 1.2
2018-Jun-21 10:58N 14°01' W 061°00'4 7.0
2018-Jun-21 10:26N 14°02' W 061°04'29 5.6
2018-Jun-21 05:13N 13°33' W 061°04'810.4
2018-Jun-21 04:27N 13°30' W 060°56'45 1.7
2018-Jun-20 02:39N 14°12' W 060°39'1 9.3
2018-Jun-20 02:30N 14°12' W 060°41'5 9.9
2018-Jun-20 02:00N 14°13' W 060°46'5 9.8
2018-Jun-20 01:30N 14°13' W 060°51'611.5
2018-Jun-20 01:00N 14°13' W 060°57'613.0
2018-Jun-20 00:30N 14°13' W 061°03'611.5
2018-Jun-20 00:00N 14°14' W 061°09'2111.7
2018-Jun-19 22:13N 14°27' W 061°26'512.8
2018-Jun-19 21:50N 14°31' W 061°29'512.6
2018-Jun-19 21:25N 14°35' W 061°33'30 2.4
2018-Jun-19 09:00N 14°12' W 061°12'208113.0 280 / 291014.210.8 27.024.125.0
2018-Jun-19 07:09N 16°51' W 063°32'10012.5
2018-Jun-18 23:11N 18°07' W 064°40'212.7
2018-Jun-18 22:59N 18°08' W 064°42'16 1.2
2018-Jun-18 10:11N 18°18' W 064°55'2 9.1
2018-Jun-18 09:59N 18°17' W 064°57'33 8.2
2018-Jun-18 06:00N 18°36' W 065°24'35 1.6 260 / 231021.310.8 27.024.126.5
2018-Jun-17 09:00N 18°42' W 066°00'13214.0 040 / 251016.2 5.4 27.024.125.0
2018-Jun-16 23:33N 18°03' W 063°47'117.3
2018-Jun-16 23:28N 18°03' W 063°45'1117.4
2018-Jun-16 22:50N 18°02' W 063°34'617.0
2018-Jun-16 22:30N 18°02' W 063°28'1117.3
2018-Jun-16 21:52N 18°01' W 063°16'617.3
2018-Jun-16 21:29N 18°01' W 063°09'6 4.6
2018-Jun-16 20:06N 18°01' W 063°03'0 0.0
2018-Jun-16 19:51N 18°01' W 063°03'0 0.0
2018-Jun-16 18:38N 18°01' W 063°03'0 0.0
2018-Jun-16 18:26N 18°01' W 063°03'0 0.0
2018-Jun-16 17:01N 18°01' W 063°03'0 0.0
2018-Jun-16 16:40N 18°01' W 063°03'0 0.0
2018-Jun-16 16:22N 18°01' W 063°03'0 0.0
2018-Jun-16 15:52N 18°01' W 063°03'0 0.0
2018-Jun-16 15:19N 18°01' W 063°03'0 0.0
2018-Jun-16 15:00N 18°01' W 063°03'0 0.0
2018-Jun-16 14:25N 18°01' W 063°03'0 0.0
2018-Jun-16 13:55N 18°01' W 063°03'0 0.0
2018-Jun-16 13:06N 18°01' W 063°03'0 0.0
2018-Jun-16 11:08N 18°01' W 063°03'0 0.0
2018-Jun-16 10:49N 18°01' W 063°03'0 0.9
2018-Jun-16 10:26N 18°00' W 063°03'2 5.8
2018-Jun-16 10:00N 18°00' W 063°05'610.5
2018-Jun-16 09:24N 18°01' W 063°12'410.0
2018-Jun-16 08:59N 18°01' W 063°17'5 9.7
2018-Jun-16 08:30N 18°01' W 063°21'5 9.7
2018-Jun-16 07:59N 18°02' W 063°26'5 9.5
2018-Jun-16 07:30N 18°05' W 063°31'5 9.4
2018-Jun-16 07:00N 18°07' W 063°35'6 9.3
2018-Jun-16 06:20N 18°10' W 063°41'412.8
2018-Jun-16 06:00N 18°06' W 063°42'322.4 130 / 261025.310.8 27.022.627.0
2018-Jun-16 05:51N 18°08' W 063°44'610.1
2018-Jun-16 05:18N 18°03' W 063°44'3 9.8
2018-Jun-16 05:00N 17°60' W 063°44'510.1
2018-Jun-16 04:29N 17°55' W 063°43'610.0
2018-Jun-16 03:51N 17°53' W 063°36'410.2
2018-Jun-16 03:30N 17°53' W 063°33'610.9
2018-Jun-16 02:59N 17°53' W 063°27'510.6
2018-Jun-16 02:28N 17°51' W 063°21'511.1
2018-Jun-16 02:00N 17°49' W 063°16'610.9
2018-Jun-16 01:25N 17°45' W 063°11'510.3
2018-Jun-16 00:57N 17°41' W 063°08'511.1
2018-Jun-16 00:29N 17°36' W 063°07'711.4
2018-Jun-15 23:54N 17°30' W 063°06'610.5
2018-Jun-15 23:18N 17°24' W 063°03'611.6
2018-Jun-15 22:45N 17°20' W 062°58'311.2
2018-Jun-15 22:29N 17°18' W 062°56'12 1.1
2018-Jun-15 10:51N 17°15' W 062°43'512.9
2018-Jun-15 10:26N 17°09' W 062°43'7015.7
2018-Jun-15 06:00N 16°06' W 062°12'9316.8 090 / 231021.310.8 27.022.626.0
2018-Jun-15 00:29N 14°42' W 061°31'816.3
2018-Jun-15 00:00N 14°35' W 061°27'916.4
2018-Jun-14 23:27N 14°27' W 061°23'716.7
2018-Jun-14 23:00N 14°21' W 061°19'816.6
2018-Jun-14 22:30N 14°15' W 061°13'816.1
2018-Jun-14 22:00N 14°08' W 061°08'11 5.7
2018-Jun-14 20:05N 14°01' W 060°60'0 0.0
2018-Jun-14 19:56N 14°01' W 060°60'0 0.0
2018-Jun-14 19:29N 14°01' W 060°60'0 0.0
2018-Jun-14 18:47N 14°01' W 060°60'0 0.0
2018-Jun-14 18:29N 14°01' W 060°60'0 0.0
2018-Jun-14 17:49N 14°01' W 060°60'0 0.0
2018-Jun-14 17:28N 14°01' W 060°60'0 0.0
2018-Jun-14 16:55N 14°01' W 060°60'0 0.0
2018-Jun-14 16:16N 14°01' W 060°60'0 0.0
2018-Jun-14 15:52N 14°01' W 060°60'0 0.0
2018-Jun-14 15:18N 14°01' W 060°60'0 0.0
2018-Jun-14 14:57N 14°01' W 060°60'0 0.0
2018-Jun-14 14:24N 14°01' W 060°60'0 0.0
2018-Jun-14 14:00N 14°01' W 060°60'0 0.0
2018-Jun-14 13:29N 14°01' W 060°60'0 0.0
2018-Jun-14 12:56N 14°01' W 060°60'0 0.0
2018-Jun-14 12:11N 14°01' W 060°60'0 0.0
2018-Jun-14 11:47N 14°01' W 060°60'0 0.0
2018-Jun-14 11:30N 14°01' W 060°60'2 2.6
2018-Jun-14 10:49N 14°02' W 061°01'510.3
2018-Jun-14 10:19N 14°01' W 061°07'32 6.4
2018-Jun-14 05:18N 13°30' W 060°56'76 3.8
2018-Jun-13 09:00N 13°06' W 059°42'8451.9 270 / 311015.2 5.4 27.024.125.0
2018-Jun-13 07:22N 14°09' W 060°40'617.3
2018-Jun-13 07:00N 14°10' W 060°46'919.0
2018-Jun-13 06:30N 14°13' W 060°55'918.2
2018-Jun-13 06:00N 14°16' W 061°04'918.9
2018-Jun-13 05:30N 14°23' W 061°11'1019.9
2018-Jun-13 05:00N 14°32' W 061°16'1019.9
2018-Jun-13 04:30N 14°40' W 061°22'8215.0
2018-Jun-12 23:00N 15°54' W 062°00'   290 / 191015.2 5.4 28.023.725.0
Track history (hours):
 
Tides and Currents Weather Stations Pressure Air Temp Water Temp Dewpoint Dewpoint Depression Visibility Wind Speed Wind Dir Waves Ship Positions

Fascination

Operator: Carnival Cruise Lines

Last reported at 2018-Jun-22 11:03 UTC. Time now 2018-Jun-22 18:39 UTC.
Position N 17°15' W 062°43'.

Type: Ship. MMSI: 309682000.

Date/timePositionNaut miles runAvg speedWind from/ knotsBaromVisibWave heightAir tempDewpointWater temp
2018-Jun-22 11:03N 17°15' W 062°43'210.0
2018-Jun-22 10:49N 17°13' W 062°43'411.9
2018-Jun-22 10:30N 17°09' W 062°43'16316.0
2018-Jun-22 00:20N 14°42' W 061°31'2616.5
2018-Jun-21 22:44N 14°19' W 061°18'516.8
2018-Jun-21 22:25N 14°15' W 061°15'716.4
2018-Jun-21 22:00N 14°10' W 061°10'1313.2
2018-Jun-21 20:59N 14°01' W 060°60'0 0.0
2018-Jun-21 15:22N 14°01' W 060°60'0 0.0
2018-Jun-21 14:12N 14°01' W 060°60'0 0.0
2018-Jun-21 12:45N 14°01' W 060°60'0 0.0
2018-Jun-21 12:30N 14°01' W 060°60'0 0.0
2018-Jun-21 11:59N 14°01' W 060°60'0 0.0
2018-Jun-21 11:29N 14°01' W 060°60'1 1.2
2018-Jun-21 10:58N 14°01' W 061°00'4 7.0
2018-Jun-21 10:26N 14°02' W 061°04'29 5.6
2018-Jun-21 05:13N 13°33' W 061°04'810.4
2018-Jun-21 04:27N 13°30' W 060°56'45 1.7
2018-Jun-20 02:39N 14°12' W 060°39'1 9.3
2018-Jun-20 02:30N 14°12' W 060°41'5 9.9
2018-Jun-20 02:00N 14°13' W 060°46'5 9.8
2018-Jun-20 01:30N 14°13' W 060°51'611.5
2018-Jun-20 01:00N 14°13' W 060°57'613.0
2018-Jun-20 00:30N 14°13' W 061°03'611.5
2018-Jun-20 00:00N 14°14' W 061°09'2111.7
2018-Jun-19 22:13N 14°27' W 061°26'512.8
2018-Jun-19 21:50N 14°31' W 061°29'512.6
2018-Jun-19 21:25N 14°35' W 061°33'30 2.4
2018-Jun-19 09:00N 14°12' W 061°12'208113.0 280 / 291014.210.8 27.024.125.0
2018-Jun-19 07:09N 16°51' W 063°32'10012.5
2018-Jun-18 23:11N 18°07' W 064°40'212.7
2018-Jun-18 22:59N 18°08' W 064°42'16 1.2
2018-Jun-18 10:11N 18°18' W 064°55'2 9.1
2018-Jun-18 09:59N 18°17' W 064°57'33 8.2
2018-Jun-18 06:00N 18°36' W 065°24'35 1.6 260 / 231021.310.8 27.024.126.5
2018-Jun-17 09:00N 18°42' W 066°00'13214.0 040 / 251016.2 5.4 27.024.125.0
2018-Jun-16 23:33N 18°03' W 063°47'117.3
2018-Jun-16 23:28N 18°03' W 063°45'1117.4
2018-Jun-16 22:50N 18°02' W 063°34'617.0
2018-Jun-16 22:30N 18°02' W 063°28'1117.3
2018-Jun-16 21:52N 18°01' W 063°16'617.3
2018-Jun-16 21:29N 18°01' W 063°09'6 4.6
2018-Jun-16 20:06N 18°01' W 063°03'0 0.0
2018-Jun-16 19:51N 18°01' W 063°03'0 0.0
2018-Jun-16 18:38N 18°01' W 063°03'0 0.0
2018-Jun-16 18:26N 18°01' W 063°03'0 0.0
2018-Jun-16 17:01N 18°01' W 063°03'0 0.0
2018-Jun-16 16:40N 18°01' W 063°03'0 0.0
2018-Jun-16 16:22N 18°01' W 063°03'0 0.0
2018-Jun-16 15:52N 18°01' W 063°03'0 0.0
2018-Jun-16 15:19N 18°01' W 063°03'0 0.0
2018-Jun-16 15:00N 18°01' W 063°03'0 0.0
2018-Jun-16 14:25N 18°01' W 063°03'0 0.0
2018-Jun-16 13:55N 18°01' W 063°03'0 0.0
2018-Jun-16 13:06N 18°01' W 063°03'0 0.0
2018-Jun-16 11:08N 18°01' W 063°03'0 0.0
2018-Jun-16 10:49N 18°01' W 063°03'0 0.9
2018-Jun-16 10:26N 18°00' W 063°03'2 5.8
2018-Jun-16 10:00N 18°00' W 063°05'610.5
2018-Jun-16 09:24N 18°01' W 063°12'410.0
2018-Jun-16 08:59N 18°01' W 063°17'5 9.7
2018-Jun-16 08:30N 18°01' W 063°21'5 9.7
2018-Jun-16 07:59N 18°02' W 063°26'5 9.5
2018-Jun-16 07:30N 18°05' W 063°31'5 9.4
2018-Jun-16 07:00N 18°07' W 063°35'6 9.3
2018-Jun-16 06:20N 18°10' W 063°41'412.8
2018-Jun-16 06:00N 18°06' W 063°42'322.4 130 / 261025.310.8 27.022.627.0
2018-Jun-16 05:51N 18°08' W 063°44'610.1
2018-Jun-16 05:18N 18°03' W 063°44'3 9.8
2018-Jun-16 05:00N 17°60' W 063°44'510.1
2018-Jun-16 04:29N 17°55' W 063°43'610.0
2018-Jun-16 03:51N 17°53' W 063°36'410.2
2018-Jun-16 03:30N 17°53' W 063°33'610.9
2018-Jun-16 02:59N 17°53' W 063°27'510.6
2018-Jun-16 02:28N 17°51' W 063°21'511.1
2018-Jun-16 02:00N 17°49' W 063°16'610.9
2018-Jun-16 01:25N 17°45' W 063°11'510.3
2018-Jun-16 00:57N 17°41' W 063°08'511.1
2018-Jun-16 00:29N 17°36' W 063°07'711.4
2018-Jun-15 23:54N 17°30' W 063°06'610.5
2018-Jun-15 23:18N 17°24' W 063°03'611.6
2018-Jun-15 22:45N 17°20' W 062°58'311.2
2018-Jun-15 22:29N 17°18' W 062°56'12 1.1
2018-Jun-15 10:51N 17°15' W 062°43'512.9
2018-Jun-15 10:26N 17°09' W 062°43'7015.7
2018-Jun-15 06:00N 16°06' W 062°12'9316.8 090 / 231021.310.8 27.022.626.0
2018-Jun-15 00:29N 14°42' W 061°31'816.3
2018-Jun-15 00:00N 14°35' W 061°27'916.4
2018-Jun-14 23:27N 14°27' W 061°23'716.7
2018-Jun-14 23:00N 14°21' W 061°19'816.6
2018-Jun-14 22:30N 14°15' W 061°13'816.1
2018-Jun-14 22:00N 14°08' W 061°08'11 5.7
2018-Jun-14 20:05N 14°01' W 060°60'0 0.0
2018-Jun-14 19:56N 14°01' W 060°60'0 0.0
2018-Jun-14 19:29N 14°01' W 060°60'0 0.0
2018-Jun-14 18:47N 14°01' W 060°60'0 0.0
2018-Jun-14 18:29N 14°01' W 060°60'0 0.0
2018-Jun-14 17:49N 14°01' W 060°60'0 0.0
2018-Jun-14 17:28N 14°01' W 060°60'0 0.0
2018-Jun-14 16:55N 14°01' W 060°60'0 0.0
2018-Jun-14 16:16N 14°01' W 060°60'0 0.0
2018-Jun-14 15:52N 14°01' W 060°60'0 0.0
2018-Jun-14 15:18N 14°01' W 060°60'0 0.0
2018-Jun-14 14:57N 14°01' W 060°60'0 0.0
2018-Jun-14 14:24N 14°01' W 060°60'0 0.0
2018-Jun-14 14:00N 14°01' W 060°60'0 0.0
2018-Jun-14 13:29N 14°01' W 060°60'0 0.0
2018-Jun-14 12:56N 14°01' W 060°60'0 0.0
2018-Jun-14 12:11N 14°01' W 060°60'0 0.0
2018-Jun-14 11:47N 14°01' W 060°60'0 0.0
2018-Jun-14 11:30N 14°01' W 060°60'2 2.6
2018-Jun-14 10:49N 14°02' W 061°01'510.3
2018-Jun-14 10:19N 14°01' W 061°07'32 6.4
2018-Jun-14 05:18N 13°30' W 060°56'76 3.8
2018-Jun-13 09:00N 13°06' W 059°42'8451.9 270 / 311015.2 5.4 27.024.125.0
2018-Jun-13 07:22N 14°09' W 060°40'617.3
2018-Jun-13 07:00N 14°10' W 060°46'919.0
2018-Jun-13 06:30N 14°13' W 060°55'918.2
2018-Jun-13 06:00N 14°16' W 061°04'918.9
2018-Jun-13 05:30N 14°23' W 061°11'1019.9
2018-Jun-13 05:00N 14°32' W 061°16'1019.9
2018-Jun-13 04:30N 14°40' W 061°22'8215.0
2018-Jun-12 23:00N 15°54' W 062°00'   290 / 191015.2 5.4 28.023.725.0

Dump ship's entire track history